Location: Ar Ranvel
(48.3000°N, 4.8833°W)
Time: 00:39:14
(UTC+00:00)

FALCON 9 DEB - Pass Details

Date: 31 October 2021
Orbit: 417 x 427 km, 53.0° (Epoch: 28 November)

Event Time Altitude Azimuth Distance (km) Brightness Sun altitude
Rises 19:22:17 0° 271° (W) 2,397 8.3 -23.8°
Reaches altitude 10° 19:24:28 10° 279° (W) 1,531 7.0 -24.2°
Enters shadow 19:26:52 33° 314° (NW) 753 4.7 -24.6°
